2021-10-24 00:01:27 r, 18.68m,0000000003Hz,0000161427c,0000000.350s, 012.5C,00002191
2021-10-24 00:11:30 r, 18.59m,0000000003Hz,0000149637c,0000000.325s, 012.5C,00002191
2021-10-24 00:21:28 r, 18.49m,0000000004Hz,0000136947c,0000000.297s, 012.2C,00002191
2021-10-24 00:31:29 r, 18.39m,0000000003Hz,0000124292c,0000000.270s, 012.2C,00002191
2021-10-24 00:41:27 r, 18.26m,0000000004Hz,0000110274c,0000000.239s, 012.2C,00002191
2021-10-24 00:51:28 r, 18.11m,0000000005Hz,0000096149c,0000000.209s, 011.9C,00002191
2021-10-24 01:01:28 r, 17.94m,0000000006Hz,0000082383c,0000000.179s, 011.9C,00002191
2021-10-24 01:11:27 r, 17.70m,0000000007Hz,0000066107c,0000000.143s, 011.9C,00002191
2021-10-24 01:21:28 r, 17.47m,0000000008Hz,0000053367c,0000000.116s, 011.9C,00002191
2021-10-24 01:31:30 r, 17.20m,0000000011Hz,0000041473c,0000000.090s, 011.9C,00002191
2021-10-24 01:41:27 r, 16.89m,0000000014Hz,0000031147c,0000000.068s, 011.6C,00002191
2021-10-24 01:51:29 r, 16.71m,0000000018Hz,0000026472c,0000000.057s, 011.6C,00002191
2021-10-24 02:01:28 r, 16.60m,0000000020Hz,0000023843c,0000000.052s, 011.6C,00002191
2021-10-24 02:11:27 r, 16.51m,0000000021Hz,0000022078c,0000000.048s, 011.6C,00002191
2021-10-24 02:21:30 r, 16.44m,0000000022Hz,0000020712c,0000000.045s, 011.6C,00002191
2021-10-24 02:31:28 r, 16.35m,0000000024Hz,0000019188c,0000000.042s, 011.9C,00002191
2021-10-24 02:41:27 r, 16.27m,0000000026Hz,0000017778c,0000000.039s, 011.9C,00002191
2021-10-24 02:51:28 r, 16.22m,0000000027Hz,0000016898c,0000000.037s, 011.9C,00002191
2021-10-24 03:01:28 r, 16.22m,0000000028Hz,0000016984c,0000000.037s, 011.9C,00002191
2021-10-24 03:11:27 r, 16.22m,0000000028Hz,0000016966c,0000000.037s, 011.6C,00002191
2021-10-24 03:21:28 r, 16.15m,0000000029Hz,0000015866c,0000000.034s, 011.6C,00002191
2021-10-24 03:31:28 r, 16.06m,0000000032Hz,0000014576c,0000000.032s, 011.6C,00002191
2021-10-24 03:41:27 r, 15.96m,0000000035Hz,0000013259c,0000000.029s, 011.6C,00002191
2021-10-24 03:51:28 r, 15.93m,0000000035Hz,0000012991c,0000000.028s, 011.2C,00002191
2021-10-24 04:01:29 r, 15.99m,0000000034Hz,0000013611c,0000000.030s, 011.2C,00002191
2021-10-24 04:11:27 r, 16.06m,0000000032Hz,0000014538c,0000000.032s, 011.2C,00002191
2021-10-24 04:21:29 r, 16.18m,0000000029Hz,0000016241c,0000000.035s, 010.9C,00002191
2021-10-24 04:31:28 r, 16.32m,0000000025Hz,0000018586c,0000000.040s, 010.9C,00002191
2021-10-24 04:41:27 r, 16.49m,0000000021Hz,0000021637c,0000000.047s, 010.9C,00002191
2021-10-24 04:51:29 r, 16.67m,0000000018Hz,0000025518c,0000000.055s, 010.9C,00002191
2021-10-24 05:01:28 r, 16.98m,0000000013Hz,0000034170c,0000000.074s, 010.9C,00002191
2021-10-24 05:11:27 r, 17.25m,0000000010Hz,0000043685c,0000000.095s, 010.6C,00002191
2021-10-24 05:21:28 r, 17.44m,0000000009Hz,0000051876c,0000000.113s, 010.6C,00002191
2021-10-24 05:31:28 r, 17.54m,0000000008Hz,0000056978c,0000000.124s, 010.6C,00002191
2021-10-24 05:41:27 r, 17.63m,0000000008Hz,0000061829c,0000000.134s, 010.6C,00002191
2021-10-24 05:51:28 r, 17.71m,0000000006Hz,0000066916c,0000000.145s, 010.6C,00002191
2021-10-24 06:01:28 r, 17.77m,0000000007Hz,0000070551c,0000000.153s, 010.6C,00002191
2021-10-24 06:11:27 r, 17.83m,0000000006Hz,0000073898c,0000000.160s, 010.6C,00002191
2021-10-24 06:21:28 r, 17.85m,0000000006Hz,0000074954c,0000000.163s, 010.6C,00002191
2021-10-24 06:31:30 r, 17.78m,0000000007Hz,0000071486c,0000000.155s, 010.6C,00002191
2021-10-24 06:41:27 r, 17.51m,0000000009Hz,0000055247c,0000000.120s, 010.6C,00002191
2021-10-24 06:51:29 r, 16.73m,0000000017Hz,0000026999c,0000000.059s, 010.6C,00002191
2021-10-24 07:01:28 r, 15.02m,0000000082Hz,0000005583c,0000000.012s, 010.6C,00002191
2021-10-24 07:11:27 r, 13.17m,0000000454Hz,0000000000c,0000000.000s, 010.6C,00002191
2021-10-24 07:21:28 r, 11.05m,0000003216Hz,0000000000c,0000000.000s, 010.9C,00002191
2021-10-24 07:31:28 r, 09.23m,0000017160Hz,0000000000c,0000000.000s, 010.9C,00002191
2021-10-24 07:41:27 r, 07.95m,0000056036Hz,0000000000c,0000000.000s, 010.9C,00002191
2021-10-24 07:51:28 r, 07.07m,0000125516Hz,0000000000c,0000000.000s, 010.9C,00002191
2021-10-24 08:01:28 r, 06.49m,0000214958Hz,0000000000c,0000000.000s, 010.9C,00002191
2021-10-24 08:11:27 r, 05.85m,0000385194Hz,0000000000c,0000000.000s, 010.6C,00002191
2021-10-24 08:21:28 r, 00.00m,0000562937Hz,0000000000c,0000000.000s, 011.6C,00002191
2021-10-24 08:31:29 r, 00.00m,0000598190Hz,0000000000c,0000000.000s, 012.2C,00002191
2021-10-24 08:41:27 r, 00.00m,0000598187Hz,0000000000c,0000000.000s, 013.2C,00002191
2021-10-24 08:51:29 r, 00.00m,0000598215Hz,0000000000c,0000000.000s, 014.1C,00002191
2021-10-24 09:01:28 r, 00.00m,0000598142Hz,0000000000c,0000000.000s, 014.5C,00002191
2021-10-24 09:11:27 r, 00.00m,0000598240Hz,0000000000c,0000000.000s, 014.5C,00002191
2021-10-24 09:21:29 r, 00.00m,0000598055Hz,0000000000c,0000000.000s, 014.1C,00002191
2021-10-24 09:31:28 r, 00.00m,0000598123Hz,0000000000c,0000000.000s, 014.1C,00002191
2021-10-24 09:41:27 r, 00.00m,0000598145Hz,0000000000c,0000000.000s, 014.1C,00002191
2021-10-24 09:51:28 r, 00.00m,0000598113Hz,0000000000c,0000000.000s, 014.8C,00002191
2021-10-24 10:01:28 r, 00.00m,0000598042Hz,0000000000c,0000000.000s, 015.4C,00002191
2021-10-24 10:11:27 r, 00.00m,0000597919Hz,0000000000c,0000000.000s, 015.7C,00002191
2021-10-24 10:21:28 r, 00.00m,0000597782Hz,0000000000c,0000000.000s, 016.7C,00002191
2021-10-24 10:31:28 r, 00.00m,0000597689Hz,0000000000c,0000000.000s, 018.0C,00002191
2021-10-24 10:41:27 r, 00.00m,0000597654Hz,0000000000c,0000000.000s, 018.6C,00002191
2021-10-24 10:51:28 r, 00.00m,0000597388Hz,0000000000c,0000000.000s, 020.6C,00002191
2021-10-24 11:01:29 r, 00.00m,0000597355Hz,0000000000c,0000000.000s, 021.9C,00002191
2021-10-24 11:11:27 r, 00.00m,0000597227Hz,0000000000c,0000000.000s, 022.2C,00002191
2021-10-24 11:21:29 r, 00.00m,0000597254Hz,0000000000c,0000000.000s, 022.8C,00002191
2021-10-24 11:31:28 r, 00.00m,0000597206Hz,0000000000c,0000000.000s, 022.8C,00002191
2021-10-24 11:41:27 r, 00.00m,0000597331Hz,0000000000c,0000000.000s, 022.5C,00002191
2021-10-24 11:51:29 r, 00.00m,0000597270Hz,0000000000c,0000000.000s, 022.8C,00002191
2021-10-24 12:01:28 r, 00.00m,0000597253Hz,0000000000c,0000000.000s, 022.8C,00002191
2021-10-24 12:11:27 r, 00.00m,0000597239Hz,0000000000c,0000000.000s, 022.5C,00002191
2021-10-24 12:21:28 r, 00.00m,0000597297Hz,0000000000c,0000000.000s, 021.9C,00002191
2021-10-24 12:31:28 r, 00.00m,0000597389Hz,0000000000c,0000000.000s, 021.5C,00002191
2021-10-24 12:41:28 r, 00.00m,0000597417Hz,0000000000c,0000000.000s, 021.2C,00002191
2021-10-24 12:51:28 r, 00.00m,0000597472Hz,0000000000c,0000000.000s, 020.9C,00002191
2021-10-24 13:01:28 r, 00.00m,0000597384Hz,0000000000c,0000000.000s, 021.2C,00002191
2021-10-24 13:11:27 r, 00.00m,0000597384Hz,0000000000c,0000000.000s, 021.2C,00002191
2021-10-24 13:21:31 r, 00.00m,0000597351Hz,0000000000c,0000000.000s, 021.2C,00002191
2021-10-24 13:31:28 r, 00.00m,0000597415Hz,0000000000c,0000000.000s, 020.9C,00002191
2021-10-24 13:41:27 r, 00.00m,0000597404Hz,0000000000c,0000000.000s, 020.6C,00002191
2021-10-24 13:51:29 r, 00.00m,0000597514Hz,0000000000c,0000000.000s, 020.6C,00002191
2021-10-24 14:01:28 r, 00.00m,0000597563Hz,0000000000c,0000000.000s, 020.6C,00002191
2021-10-24 14:11:27 r, 00.00m,0000597431Hz,0000000000c,0000000.000s, 021.2C,00002191
2021-10-24 14:21:28 r, 00.00m,0000597373Hz,0000000000c,0000000.000s, 021.9C,00002191
2021-10-24 14:31:29 r, 00.00m,0000597403Hz,0000000000c,0000000.000s, 021.5C,00002191
2021-10-24 14:41:27 r, 00.00m,0000597541Hz,0000000000c,0000000.000s, 021.2C,00002191
2021-10-24 14:51:28 r, 00.00m,0000597484Hz,0000000000c,0000000.000s, 020.9C,00002191
2021-10-24 15:01:28 r, 00.00m,0000597581Hz,0000000000c,0000000.000s, 020.6C,00002191
2021-10-24 15:11:27 r, 00.00m,0000597541Hz,0000000000c,0000000.000s, 020.9C,00002191
2021-10-24 15:21:28 r, 00.00m,0000597477Hz,0000000000c,0000000.000s, 020.9C,00002191
2021-10-24 15:31:30 r, 00.00m,0000597482Hz,0000000000c,0000000.000s, 021.2C,00002191
2021-10-24 15:41:27 r, 00.00m,0000597597Hz,0000000000c,0000000.000s, 020.9C,00002191
2021-10-24 15:51:30 r, 00.00m,0000597561Hz,0000000000c,0000000.000s, 020.6C,00002191
2021-10-24 16:01:28 r, 00.00m,0000597526Hz,0000000000c,0000000.000s, 020.3C,00002191
2021-10-24 16:11:27 r, 00.00m,0000597549Hz,0000000000c,0000000.000s, 020.3C,00002191
2021-10-24 16:21:29 r, 00.00m,0000597557Hz,0000000000c,0000000.000s, 020.3C,00002191
2021-10-24 16:31:28 r, 00.00m,0000597597Hz,0000000000c,0000000.000s, 020.3C,00002191
2021-10-24 16:41:27 r, 00.00m,0000597498Hz,0000000000c,0000000.000s, 020.3C,00002191
2021-10-24 16:51:28 r, 00.00m,0000597481Hz,0000000000c,0000000.000s, 020.3C,00002191
2021-10-24 17:01:28 r, 00.00m,0000597573Hz,0000000000c,0000000.000s, 019.9C,00002191
2021-10-24 17:11:27 r, 00.00m,0000597556Hz,0000000000c,0000000.000s, 019.6C,00002191
2021-10-24 17:21:27 r, 00.00m,0000449654Hz,0000000000c,0000000.000s, 019.6C,00002191
2021-10-24 17:31:30 r, 06.13m,0000299368Hz,0000000000c,0000000.000s, 019.6C,00002191
2021-10-24 17:41:28 r, 06.64m,0000186847Hz,0000000000c,0000000.000s, 019.0C,00002191
2021-10-24 17:51:27 r, 07.32m,0000099657Hz,0000000000c,0000000.000s, 019.0C,00002191
2021-10-24 18:01:29 r, 08.30m,0000040520Hz,0000000000c,0000000.000s, 018.6C,00002191
2021-10-24 18:11:28 r, 09.63m,0000011956Hz,0000000000c,0000000.000s, 018.3C,00002191
2021-10-24 18:21:27 r, 11.47m,0000002192Hz,0000000000c,0000000.000s, 018.0C,00002191
2021-10-24 18:31:28 r, 13.74m,0000000271Hz,0000000000c,0000000.000s, 017.7C,00002191
2021-10-24 18:41:30 r, 16.01m,0000000033Hz,0000013913c,0000000.030s, 017.0C,00002191
2021-10-24 18:51:27 r, 17.64m,0000000007Hz,0000062374c,0000000.135s, 016.7C,00002191
2021-10-24 19:01:28 r, 18.92m,0000000003Hz,0000201928c,0000000.438s, 016.4C,00002191
2021-10-24 19:11:28 r, 19.69m,0000000001Hz,0000409044c,0000000.888s, 016.4C,00002191
2021-10-24 19:21:27 r, 19.75m,0000000001Hz,0000431048c,0000000.935s, 016.1C,00002191
2021-10-24 19:31:30 r, 19.67m,0000000002Hz,0000400345c,0000000.869s, 016.1C,00002191
2021-10-24 19:41:28 r, 19.66m,0000000002Hz,0000398632c,0000000.865s, 016.4C,00002191
2021-10-24 19:51:27 r, 19.72m,0000000001Hz,0000419389c,0000000.910s, 016.4C,00002191
2021-10-24 20:01:30 r, 19.60m,0000000001Hz,0000378095c,0000000.821s, 016.4C,00002191
2021-10-24 20:11:28 r, 19.74m,0000000001Hz,0000426967c,0000000.927s, 016.1C,00002191
2021-10-24 20:21:27 r, 19.92m,0000000001Hz,0000505631c,0000001.097s, 016.1C,00002191
2021-10-24 20:31:28 r, 19.98m,0000000001Hz,0000534659c,0000001.160s, 016.1C,00002191
2021-10-24 20:41:29 r, 19.95m,0000000001Hz,0000520488c,0000001.130s, 015.7C,00002191
2021-10-24 20:51:27 r, 19.91m,0000000001Hz,0000502939c,0000001.091s, 015.4C,00002191
2021-10-24 21:01:29 r, 19.90m,0000000001Hz,0000496267c,0000001.077s, 015.1C,00002191
2021-10-24 21:11:28 r, 19.94m,0000000001Hz,0000513422c,0000001.114s, 015.1C,00002191
2021-10-24 21:21:27 r, 20.01m,0000000001Hz,0000550950c,0000001.196s, 014.8C,00002191
2021-10-24 21:31:28 r, 20.02m,0000000001Hz,0000555849c,0000001.206s, 014.5C,00002191
2021-10-24 21:41:28 r, 19.98m,0000000000Hz,0000535572c,0000001.162s, 014.1C,00002191
2021-10-24 21:51:27 r, 19.98m,0000000001Hz,0000533505c,0000001.158s, 014.1C,00002191
2021-10-24 22:01:30 r, 19.92m,0000000001Hz,0000505772c,0000001.098s, 013.8C,00002191
2021-10-24 22:11:28 r, 19.90m,0000000001Hz,0000498246c,0000001.081s, 013.8C,00002191
2021-10-24 22:21:27 r, 19.82m,0000000001Hz,0000459757c,0000000.998s, 013.5C,00002191
2021-10-24 22:31:30 r, 19.73m,0000000001Hz,0000424105c,0000000.920s, 013.8C,00002191
2021-10-24 22:41:28 r, 19.68m,0000000001Hz,0000406278c,0000000.882s, 013.5C,00002191
2021-10-24 22:51:27 r, 19.63m,0000000001Hz,0000387876c,0000000.842s, 013.5C,00002191
2021-10-24 23:01:28 r, 19.58m,0000000002Hz,0000370631c,0000000.804s, 013.5C,00002191
2021-10-24 23:11:28 r, 19.53m,0000000002Hz,0000354252c,0000000.769s, 013.2C,00002191
2021-10-24 23:21:27 r, 19.48m,0000000001Hz,0000337197c,0000000.732s, 013.2C,00002191
2021-10-24 23:31:28 r, 19.42m,0000000002Hz,0000319685c,0000000.694s, 012.8C,00002191
2021-10-24 23:41:28 r, 19.34m,0000000001Hz,0000295634c,0000000.642s, 012.8C,00002191
2021-10-24 23:51:27 r, 19.21m,0000000002Hz,0000262052c,0000000.569s, 012.8C,00002191
